Shelbyville, IN

7:42 PM EDT on July 24, 2017 (GMT -0400)
Shelbyville Municipal

Weather History for KGEZ - June, 2014

Change the Weather History Date:

Thursday, June 26, 2014

  Actual Average Record
Temperature  
Mean Temperature 78 °F 74 °F  
Max Temperature 88 °F 84 °F 93 °F (2016)
Min Temperature 68 °F 63 °F 50 °F (2004)
Degree Days  
Heating Degree Days 0 0  
Month to date heating degree days 1 11  
Since 1 June heating degree days 1 11  
Since 1 July heating degree days 5703 5406  
Cooling Degree Days 13 9  
Month to date cooling degree days 261 174  
Year to date cooling degree days 424 255  
Since 1 June cooling degree days 261 174  
Growing Degree Days 28 (Base 50)    
Moisture  
Dew Point 66 °F    
Average Humidity 68    
Maximum Humidity 90    
Minimum Humidity 46    
Precipitation  
Precipitation 0.00 in 0.15 in 0.95 in (2015)
Month to date precipitation 5.08 3.91  
Year to date precipitation 20.57 21.69  
Sea Level Pressure  
Sea Level Pressure 30.01 in    
Wind  
Wind Speed 3 mph (NNE)    
Max Wind Speed 8 mph    
Max Gust Speed 11 mph    
Visibility 8 miles    
Events      
T = Trace of Precipitation, MM = Missing Value Source: NWS Daily Summary

Daily Weather History Graph

Daily Weather History Graph

Search for Another Location

Airport or City:

Trip Planner

Search our weather history database for the weather conditions in past years. The results will help you decide how hot, cold, wet, or windy it might be!

Date:

Astronomy

Jun. 26, 2014 Rise Set
Actual Time 6:17 AM EDT 9:14 PM EDT
Civil Twilight 5:44 AM EDT 9:47 PM EDT
Nautical Twilight 5:03 AM EDT 10:28 PM EDT
Astronomical Twilight 4:15 AM EDT 11:16 PM EDT
Moon 5:55 AM EDT (6/26) 8:35 PM EDT (6/26)
Length of Visible Light 16h 02m
Length of Day
14h 57m
Waning Crescent, 0% of the Moon is Illuminated
Jun 26
Waning Crescent
Jun 27
New
Jul 5
First Quarter
Jul 12
Full
Jul 18
Last Quarter

Hourly Weather History & Observations

Time (EDT) Temp. Heat Index Dew Point Humidity Pressure Visibility Wind Dir Wind Speed Gust Speed Precip Events Conditions
1:53 AM 71.1 °F - 66.9 °F 87% 30.01 in 10.0 mi Calm Calm - N/A   Mostly Cloudy
2:53 AM 70.0 °F - 66.9 °F 90% 30.01 in 7.0 mi NNW 3.5 mph - N/A   Partly Cloudy
3:53 AM 70.0 °F - 66.0 °F 87% 30.00 in 7.0 mi NW 3.5 mph - N/A   Clear
4:53 AM 69.1 °F - 64.9 °F 87% 30.01 in 7.0 mi NNE 3.5 mph - N/A   Clear
5:53 AM 68.0 °F - 64.0 °F 87% 30.02 in 5.0 mi North 3.5 mph - N/A   Clear
6:19 AM 68.0 °F - 64.9 °F 90% 30.04 in 2.5 mi North 3.5 mph - N/A   Clear
6:45 AM 69.1 °F - 64.9 °F 87% 30.04 in 3.0 mi Calm Calm - N/A   Clear
6:53 AM 69.1 °F - 64.9 °F 87% 30.02 in 3.0 mi Calm Calm - N/A   Clear
7:02 AM 69.1 °F - 64.9 °F 87% 30.04 in 2.0 mi Calm Calm - N/A   Clear
7:48 AM 71.6 °F - 66.2 °F 83% 30.04 in 3.0 mi NNE 4.6 mph - N/A   Clear
7:53 AM 71.1 °F - 66.9 °F 87% 30.02 in 3.0 mi NNE 3.5 mph - N/A   Clear
8:53 AM 75.9 °F - 69.1 °F 79% 30.04 in 6.0 mi Calm Calm - N/A   Haze
9:53 AM 80.1 °F 82.9 °F 69.1 °F 69% 30.04 in 10.0 mi North 3.5 mph - N/A   Clear
10:53 AM 81.0 °F 83.8 °F 68.0 °F 65% 30.04 in 10.0 mi Calm Calm - N/A   Clear
11:53 AM 82.0 °F 84.1 °F 66.0 °F 58% 30.04 in 10.0 mi Calm Calm - N/A   Clear
12:53 PM 84.9 °F 87.1 °F 66.0 °F 53% 30.04 in 10.0 mi NNW 5.8 mph - N/A   Partly Cloudy
1:53 PM 84.9 °F 87.1 °F 66.0 °F 53% 30.03 in 10.0 mi NE 4.6 mph - N/A   Partly Cloudy
2:53 PM 87.1 °F 88.9 °F 64.9 °F 48% 30.01 in 10.0 mi Variable 4.6 mph - N/A   Clear
3:53 PM 86.0 °F 88.8 °F 66.9 °F 53% 29.99 in 10.0 mi ESE 3.5 mph - N/A   Scattered Clouds
4:53 PM 88.0 °F 89.6 °F 64.9 °F 46% 29.98 in 10.0 mi Calm Calm - N/A   Clear
5:53 PM 87.1 °F 88.9 °F 64.9 °F 48% 29.97 in 10.0 mi Variable 3.5 mph - N/A   Partly Cloudy
6:53 PM 84.9 °F 86.1 °F 64.0 °F 49% 29.96 in 10.0 mi Variable 4.6 mph - N/A   Clear
7:53 PM 82.9 °F 85.4 °F 66.9 °F 58% 29.97 in 10.0 mi NE 3.5 mph - N/A   Clear
8:53 PM 78.1 °F - 69.1 °F 74% 29.97 in 10.0 mi ENE 4.6 mph - N/A   Scattered Clouds
9:53 PM 75.9 °F - 66.9 °F 74% 29.99 in 10.0 mi NE 5.8 mph - N/A   Partly Cloudy
10:53 PM 73.9 °F - 66.9 °F 79% 30.01 in 10.0 mi East 5.8 mph - N/A   Mostly Cloudy
11:53 PM 72.0 °F - 66.9 °F 84% 30.02 in 10.0 mi ENE 5.8 mph - N/A   Clear